Location: Newark
(48.5667°N, 7.8167°E)
Time: 04:53:33
(UTC+00:00)

JY1SAT - Pass Details

Date: 24 July 2021
Orbit: 568 x 591 km, 97.7° (Epoch: 19 September)

Event Time Altitude Azimuth Distance (km) Brightness Sun altitude
Exits shadow 22:24:56 - 237° (WSW) 1,957 ? -20.0°
Reaches altitude 10° 22:25:11 10° 240° (WSW) 1,905 ? -20.0°
Maximum altitude 22:27:20 14° 271° (W) 1,676 ? -20.1°
Drops below altitude 10° 22:29:30 10° 303° (WNW) 1,920 ? -20.2°
Sets 22:32:41 0° 329° (NNW) 2,832 ? -20.4°
